Home > Weather > Aalen > Past weeks

Flag for Germany Weather for the Past 2 Weeks in Aalen, Baden-Württemberg, Germany

Now
36 °F

Passing clouds.


Feels Like: 33 °F
Forecast: 36 / 61 °F
Wind: 3 mph from Northwest

Location: Niederstetten

Current Time: May 4, 2016 at 6:39:49 AM

Latest Report: May 4, 2016 at 5:20 AM


Visibility: N/A

Pressure: 30.30 "Hg

Humidity: 93%

Dew Point: 34 °F

Location of AalenLocation

Historic Weather in Aalen — Graph

°F

Aalen Temperature Yesterday

Maximum temperature yesterday: 57 °F (at 11:20 AM)
Minimum temperature yesterday: 45 °F (at 2:20 AM)
Average temperature yesterday: 49 °F

High & Low Weather Summary for the Past Weeks

 TemperatureHumidityPressure
High63 °F (Apr 21, 3:20 PM)100% (Apr 26, 7:20 AM)30.39 "Hg (Apr 26, 7:20 AM)
Low30 °F (Apr 24, 6:20 AM)30% (Apr 20, 3:20 PM)29.50 "Hg (Apr 26, 5:20 AM)
Average44 °F70%29.99 "Hg
* Reported Apr 19 5:20 AM — May 4 5:20 AM, Aalen, Weather by CustomWeather, © 2016

Note: Actual official high and low records may vary slightly from our data, if they occured in-between our weather recording intervals... More about our weather records

Advertising

Aalen Weather History for the Previous 24 Hours

Scroll right to see more
 ConditionsComfort  
Time TempWeatherWind HumidityBarometerVisibility
5:20 AM
Wed, May 4
36 °FPassing clouds.3 mph93%30.30 "HgN/A
4:20 AM39 °FPassing clouds.3 mph93%30.30 "HgN/A
3:20 AM41 °FPassing clouds.5 mph87%30.30 "HgN/A
2:20 AM43 °FPassing clouds.3 mph81%30.30 "HgN/A
1:20 AM45 °FPartly cloudy.5 mph76%30.30 "HgN/A
12:20 AM45 °FPartly cloudy.5 mph76%30.27 "HgN/A
11:20 PM
Tue, May 3
46 °FPassing clouds.6 mph71%30.27 "HgN/A
10:20 PM46 °FPartly cloudy.6 mph71%30.24 "HgN/A
9:20 PM46 °FScattered clouds.5 mph76%30.21 "HgN/A
8:20 PM48 °FScattered showers. Scattered clouds.8 mph71%30.18 "HgN/A
7:20 PM50 °FPassing clouds.13 mph67%30.15 "HgN/A
6:20 PM50 °FScattered clouds.13 mph67%30.15 "HgN/A
5:20 PM48 °FPartly sunny.8 mph87%30.15 "HgN/A
4:20 PM46 °FLight rain. Broken clouds.6 mph93%30.12 "Hg6 mi
3:20 PM46 °FLight rain. Broken clouds.7 mph93%30.12 "Hg5 mi
2:20 PM46 °FRain showers. Fog.9 mph93%30.12 "Hg3 mi
1:20 PM55 °FPartly sunny.5 mph63%30.07 "HgN/A
12:20 PM57 °FBroken clouds.8 mph51%30.07 "HgN/A
11:20 AM57 °FBroken clouds.13 mph51%30.09 "HgN/A
10:20 AM54 °FBroken clouds.14 mph63%30.09 "HgN/A
9:20 AM50 °FScattered clouds.10 mph71%30.07 "HgN/A
8:20 AM50 °FPartly sunny.10 mph71%30.07 "HgN/A
7:20 AM48 °FBroken clouds.10 mph71%30.07 "HgN/A
6:20 AM48 °FPassing clouds.7 mph66%30.07 "HgN/A
Weather by CustomWeather, © 2016

See weather overviewHow to use our weather pages